Погода в Тернополе

Погода в Тернополе : погода сейчас, прогноз погоды и архив. Всё, что Вы хотите узнать о погоде в Тернополе!

Хотите узнать прогноз погоды в Тернополе? Тогда Вам сюда: Погода в Тернополе

Поиск расширенной информации на нашем сайте:

Полезная информация:

Другие новости

Новости СМИ2

Главная страница сайта

Новости сайта

03.07.2017

Напоминаем, что на нашем специализированном сайте Метеоцентр.Азия вы можете получить высокодетализированные автоматические прогнозы погоды по пунктам России, СНГ и мира в авиационном формате (включающие направление и скорость ветра, видимость, явления погоды, количество и форму облачности, нижнюю и верхнюю границу облачности).

Рекомендуем:

Погода в Тернополе - сегодня

Время (UTC), дата Ветер
(°,м/с) 
Видим.   Явления Облачность Т
(°С)
Тd
(°С)
f(%) Тe
(°С)
Pmin
(гПа)
dP
(гПа)
Po
(мм)
O2
(г/м3)
Тmin Tmax R s Состояние
почвы
03 16.07.19 тихо ()   10 км    3/0 верхняя 
[Ci fib]
+8.5 +7.5 93 +9  1012.8  -0.1  730  284           
06 16.07.19 350 (С) 20000 м    ясно 
+16.7 +12.4 76 +23  1011.7  0.1  730  275  +8.4         
09 16.07.19 350 (С) 20000 м    8/8 1000 м 
[Cu med, cong]
+21.6 +7.8 41 +22  1010.5  -0.6  730  271           
12 16.07.19 260 (З) 20000 м    8/6 1000 м средняя 
[Cu med, cong|Ac trans]
+21.8 +8.6 43 +22  1009.7  -0.8  729  271           
15 16.07.19 260 (З) 20000 м    8/4 1000 м верхняя 
[Cu med, cong|Cs]
+23.4 +4.5 29 +23  1008.6  -0.9  729  270           
18 16.07.19 280 (З) 10 км    4/0 средняя, верхняя 
[Ac trans|Ci fib]
+19.8 +8.7 49 +21  1008.8  -0.2  728  272    +24.1       
21 16.07.19 330 (СЗ) 10 км    8/4 1000 м кучево-дожд., средняя 
[Cb cap|Ac trans]
+16.3 +11.2 72 +19  1010.5  1.2  729  275           
00 17.07.19 270 (З) 10 км  слаб. ливневой дождь  10/8 600 м кучево-дожд., средняя 
[Cb cap|Ac und]
+13.4 +12.9 97 +20  1011.5  0.6  730  278           
03 17.07.19 260 (З) 10 км  {ливн. осадки}  8/4 1000 м кучево-дожд., средняя 
[Cb cap|Ac trans]
+12.5 +11.9 96 +17  1010.8  -0.8  729  279           
06 17.07.19 260 (З) 10 км  {ливн. осадки}  5/3 1000 м средняя 
[Sc|Ac trans]
+15.3 +10.9 75 +18  1009.9  -0.5  729  276  +12.4       
09 17.07.19 270 (З) 20000 м    8/6 1000 м кучево-дожд., средняя 
[Cb calv|Ac As]
+18.5 +10.6 60 +21  1008.9  -0.5  728  273           
12 17.07.19 260 (З) 20000 м  {ливн. осадки}  9/3 1000 м кучево-дожд., средняя 
[Cb cap|Ac As]
+19.6 +8.4 48 +20  1008.3  -0.5  728  272      0.0     
15 17.07.19 300 (СЗ) 6000 м  слаб. ливневой дождь  10/9 1000 м кучево-дожд., средняя 
[Cb cap|Ac As]
+14.5 +10.4 76 +16  1010.5  1.5  729  277           
18 17.07.19 290 (З) 10 км  осадки на расстоянии{ливн. осадки}  5/4 1000 м кучево-дожд., средняя 
[Cb cap|Ac cuf]
+13.1 +11.4 89 +17  1010.7  729  278    +20.4  0.7     
21 17.07.19 280 (З) 10 км  {ливн. осадки}  1/0 средняя 
[Ac cuf]
+11.4 +10.4 94 +13  1011.6  0.6  730  280           
00 18.07.19 280 (З) 10 км  {ливн. осадки}  3/0 средняя 
[Ac trans]
+10.9 +9.9 94 +12  1011.9  0.3  730  281      0.0     
03 18.07.19 280 (З) 10 км    1/0 средняя 
[Ac cuf]
+9.4 +8.8 96 +8  1012.5  0.3  730  283           
06 18.07.19 280 (З) 20000 м    1/0 средняя 
[Ac cuf]
+15.5 +10.9 74 +18  1012.2  0.6  731  276  +9.3  -2  0.0     
09 18.07.19 270 (З) 20000 м    8/8 1000 м 
[Cu med, cong]
+19.6 +10.7 56 +23  1012.2  0.5  731  273           
12 18.07.19 270 (З) 20000 м    9/6 1000 м средняя 
[Cu med, cong|Ac trans]
+21.3 +8.3 43 +21  1012  731  272           
15 18.07.19 310 (СЗ) 20000 м    9/4 1000 м средняя 
[Cu hum|Ac trans]
+21 +9.6 48 +22  1012.4  0.3  731  272           
18 18.07.19 290 (З) 10 км    4/0 средняя 
[Ac trans]
+19.1 +10.9 59 +23  1013.4  0.8  732  274           
21 18.07.19 тихо ()   10 км    8/0 верхняя 
[Ci fib]
+13.4 +10 80 +15  1015.2  732  279           
00 19.07.19 320 (СЗ) 10 км    4/0 верхняя 
[Ci fib]
+10.6 +9.2 91 +13  1016.4  0.7  733  283           
03 19.07.19 тихо ()   10 км    4/0 верхняя 
[Ci fib]
+8.4 +7.6 95 +8  1017.2  0.5  733  285           
Время (UTC), дата Ветер
(°,м/с) 
Видим.   Явления Облачность Т
(°С)
Тd
(°С)
f(%) Тe
(°С)
Pmin
(гПа)
dP
(гПа)
Po
(мм)
O2
(г/м3)
Тmin Tmax R s Состояние
почвы

Для получения пояснительной информации подведите курсор к названию столбца.

ПОГОДА в Тернополе - архив

Всё, что Вы хотите узнать о погоде в Тернополе - удобно и подробно!

Выберите нужную дату (начиная с 1 января 2018* года) и нажмите кнопку "Найти".
Будут отображены архивные сводки погоды по пункту Тернополь, начиная с указанной даты.


Отображать данные в формате CSV (для использования в таблицах Excel)


Внимание! Наш архив погоды предназначен исключительно для личного некоммерческого использования в познавательных целях. Если Вам необходимы официальные справки о состоянии погоды (для производственных, юридических, коммерческих и т.п. целей), обращайтесь в органы Росгидромета.

*Примечание: данная дата относится к архиву по метеостанциям СССР (Россия, СНГ, Балтия).
Архив по метеостанциям Зарубежной Европы и Азии (кроме Китая) хранится 10 дней, по другим регионам земного шара (Китай, Африка, Америка, Австралия, Океания) - 1 день.

Тернополь - район местоположения метеостанции


Название, широта, долгота, высота метеостанции:
Тернополь 49.5°ш. 25.7°д. 329 м над ур. моря [Украина]

Дополнительная информация

В oтличие oт бoльшинства пoгoдных сайтoв мы публикуем пoдрoбную метеoинфoрмацию в детальнoм прoфессиoнальнoм фoрмате.

Характеристики температуры и влажнoсти вoздуха измеряются на высoте 2 м в тени вдали oт зданий и деревьев.
Скoрoсть ветра измеряется на высoте 10 м (на урoвне рoста челoвека скoрoсть ветра ниже в 1.5-2 раза). Если метеoстанция нахoдится в гoрoде или в лесу, тo скoрoсть ветра занижена на 2-4 м/с пo сравнению с oткрытым местoм. Скoрoсть ветра над акватoриями крупных рек и oзёр, а также на вершинах хoлмoв на 2-5 м/с выше, чем в oбычных услoвиях.
Атмoсфернoе давление в разных тoчках местнoсти мoжет значительнo oтличаться oт давления на метеoстанции, в зависимoсти oт услoвий рельефа (при пoдъёме на 10 м давление пoнижается примернo на 1 мм рт.ст.).